TimeEET,TemperatureF,Dew PointF,Humidity,Sea Level PressureIn,VisibilityMPH,Wind Direction,Wind SpeedMPH,Gust SpeedMPH,PrecipitationIn,Events,Conditions,WindDirDegrees,DateUTC
12:00 AM,69.8,50.0,49,29.92,-9999.0,WNW,11.5,-,N/A,,Clear,290,2013-11-13 22:00:00
1:00 AM,69.8,50.0,49,29.92,-9999.0,WNW,9.2,-,N/A,,Clear,300,2013-11-13 23:00:00
2:00 AM,70,51,40,29.91,6,WNW,11.5,,,,,300,2013-11-14 00:00:00
2:00 AM,69.8,50.0,49,29.89,-9999.0,WNW,11.5,-,N/A,,Clear,300,2013-11-14 00:00:00
3:00 AM,68.0,50.0,52,29.89,-9999.0,WNW,11.5,-,N/A,,Clear,300,2013-11-14 01:00:00
4:00 AM,68.0,50.0,52,29.89,-9999.0,WNW,11.5,-,N/A,,Clear,300,2013-11-14 02:00:00
5:00 AM,66,49,45,29.92,6,NW,8.1,,,,,310,2013-11-14 03:00:00
5:00 AM,66.2,50.0,56,29.92,-9999.0,NW,8.1,-,N/A,,Clear,310,2013-11-14 03:00:00
6:00 AM,64.4,50.0,59,29.92,-9999.0,WNW,5.8,-,N/A,,Clear,300,2013-11-14 04:00:00
7:00 AM,66.2,51.8,60,29.95,-9999.0,NW,9.2,-,N/A,,Clear,310,2013-11-14 05:00:00
8:00 AM,72,55,46,29.96,6,North,15.0,,,,,350,2013-11-14 06:00:00
8:00 AM,71.6,55.4,57,29.95,-9999.0,North,15.0,-,N/A,,Clear,350,2013-11-14 06:00:00
9:00 AM,77.0,55.4,47,29.95,-9999.0,North,15.0,-,N/A,,Clear,350,2013-11-14 07:00:00
10:00 AM,78.8,55.4,44,29.95,-9999.0,North,13.8,-,N/A,,Clear,360,2013-11-14 08:00:00
11:00 AM,81,55,30,29.93,6,North,16.1,,,,,350,2013-11-14 09:00:00
11:00 AM,80.6,55.4,42,29.92,-9999.0,North,16.1,-,N/A,,Clear,350,2013-11-14 09:00:00
12:00 PM,84.2,55.4,37,29.89,-9999.0,North,11.5,-,N/A,,Clear,360,2013-11-14 10:00:00
1:00 PM,86.0,57.2,37,29.86,-9999.0,North,9.2,-,N/A,,Clear,10,2013-11-14 11:00:00
2:00 PM,89,58,25,29.87,6,North,6.9,,,,,10,2013-11-14 12:00:00
2:00 PM,87.8,57.2,35,29.86,-9999.0,North,6.9,-,N/A,,Clear,10,2013-11-14 12:00:00
3:00 PM,89.6,59.0,36,29.86,-9999.0,NNE,5.8,-,N/A,,Clear,30,2013-11-14 13:00:00
4:00 PM,87.8,57.2,35,29.86,-9999.0,ENE,6.9,-,N/A,,Clear,70,2013-11-14 14:00:00
5:00 PM,80,58,36,29.87,6,Calm,Calm,,,,Clear,,2013-11-14 15:00:00
5:00 PM,80.6,57.2,45,29.86,-9999.0,Calm,Calm,-,N/A,,Clear,0,2013-11-14 15:00:00
6:00 PM,73.4,57.2,57,29.86,-9999.0,Calm,Calm,-,N/A,,Clear,0,2013-11-14 16:00:00
7:00 PM,73.4,59.0,61,29.89,-9999.0,Calm,Calm,-,N/A,,Clear,0,2013-11-14 17:00:00
8:00 PM,70,57,54,29.91,6,Calm,Calm,,,,,,2013-11-14 18:00:00
8:00 PM,69.8,57.2,64,29.89,-9999.0,Calm,Calm,-,N/A,,Clear,0,2013-11-14 18:00:00
9:00 PM,68.0,53.6,60,29.92,-9999.0,Calm,Calm,-,N/A,,Clear,0,2013-11-14 19:00:00
10:00 PM,68.0,57.2,68,29.92,-9999.0,NW,6.9,-,N/A,,Clear,310,2013-11-14 20:00:00
11:00 PM,69,60,66,29.92,6,NW,11.5,,,,,320,2013-11-14 21:00:00
11:00 PM,69.8,60.8,73,29.92,-9999.0,NW,11.5,-,N/A,,Clear,320,2013-11-14 21:00:00